Alabaster, AL

8:49 AM CDT on October 23, 2019 (GMT -0500)
Shelby County

Weather History for KEET - August, 2019

Change the Weather History Date:

Friday, August 2, 2019

  Actual Average Record
Temperature  
Mean Temperature 82 °F 81 °F  
Max Temperature 92 °F 91 °F 99 °F (1957)
Min Temperature 71 °F 71 °F 57 °F (1965)
Cooling Degree Days 17 16  
Month to date cooling degree days 33 32  
Year to date cooling degree days 1322 1162  
Since 1 June cooling degree days 925 893  
Growing Degree Days 31 (Base 50)    
Moisture  
Dew Point 68 °F    
Average Humidity 67    
Maximum Humidity 93    
Minimum Humidity 41    
Precipitation  
Precipitation 0.00 in 0.14 in 0.77 in (1973)
Month to date precipitation 0.02 0.28  
Year to date precipitation 31.30 33.60  
Sea Level Pressure  
Sea Level Pressure 29.98 in    
Wind  
Wind Speed 2 mph (NE)    
Max Wind Speed 12 mph    
Max Gust Speed 19 mph    
Visibility 9 miles    
Events Thunderstorm    
T = Trace of Precipitation, MM = Missing Value Source: NWS Daily Summary

Daily Weather History Graph

Daily Weather History Graph

Search for Another Location

Airport or City:

Astronomy

Aug. 02, 2019 Rise Set
Actual Time 6:00 AM CDT 7:45 PM CDT
Civil Twilight 5:33 AM CDT 8:12 PM CDT
Nautical Twilight 5:01 AM CDT 8:45 PM CDT
Astronomical Twilight 4:26 AM CDT 9:19 PM CDT
Moon 7:36 AM CDT (8/2) 9:18 PM CDT (8/2)
Length of Visible Light 14h 38m
Length of Day
13h 44m
Waxing Crescent, 4% of the Moon is Illuminated
Aug 2
Waxing Crescent
Aug 7
First Quarter
Aug 15
Full
Aug 23
Last Quarter
Aug 30
New

Hourly Weather History & Observations

Time (CDT) Temp. Heat Index Dew Point Humidity Pressure Visibility Wind Dir Wind Speed Gust Speed Precip Events Conditions
12:53 AM 73.9 °F - 70.0 °F 87% 30.02 in 9.0 mi Calm Calm - N/A   Clear
1:53 AM 73.0 °F - 70.0 °F 90% 30.01 in 9.0 mi Calm Calm - N/A   Clear
2:53 AM 72.0 °F - 70.0 °F 93% 29.99 in 8.0 mi Calm Calm - N/A   Clear
4:53 AM 71.1 °F - 69.1 °F 93% 29.99 in 7.0 mi East 3.5 mph - N/A   Clear
5:53 AM 71.1 °F - 68.0 °F 90% 30.01 in 7.0 mi Calm Calm - N/A   Clear
6:53 AM 71.1 °F - 69.1 °F 93% 30.01 in 7.0 mi Calm Calm - N/A   Clear
7:16 AM 72.0 °F - 69.1 °F 91% 30.04 in 7.0 mi Variable 3.5 mph - N/A   Partly Cloudy
7:53 AM 73.0 °F - 69.1 °F 87% 30.03 in 10.0 mi Variable 4.6 mph - N/A   Partly Cloudy
8:53 AM 77.0 °F - 69.1 °F 76% 30.04 in 10.0 mi SE 5.8 mph - N/A   Clear
9:53 AM 80.1 °F 82.7 °F 68.0 °F 67% 30.04 in 10.0 mi SSE 3.5 mph - N/A   Clear
10:53 AM 84.9 °F 87.1 °F 66.0 °F 53% 30.03 in 10.0 mi Variable 5.8 mph - N/A   Clear
11:53 AM 84.9 °F 87.6 °F 66.9 °F 55% 30.02 in 10.0 mi Calm Calm - N/A   Overcast
12:53 PM 88.0 °F 89.6 °F 64.9 °F 46% 30.00 in 10.0 mi North - - N/A   Clear
1:53 PM 91.0 °F 93.0 °F 64.9 °F 42% 29.97 in 10.0 mi Variable 4.6 mph - N/A   Partly Cloudy
2:53 PM 90.0 °F 90.3 °F 62.1 °F 39% 29.94 in 10.0 mi Calm Calm - N/A   Scattered Clouds
3:49 PM 86.0 °F 89.4 °F 68.0 °F 55% 29.96 in 10.0 mi NE 6.9 mph 18.4 mph N/A Thunderstorm Mostly Cloudy
3:53 PM 84.9 °F 88.8 °F 69.1 °F 59% 29.94 in 10.0 mi ENE 9.2 mph 18.4 mph N/A Thunderstorm Mostly Cloudy
4:13 PM 84.0 °F 87.0 °F 68.0 °F 58% 29.96 in 10.0 mi Variable 6.9 mph - N/A   Mostly Cloudy
4:33 PM 84.0 °F 87.0 °F 68.0 °F 58% 29.96 in 10.0 mi Variable 4.6 mph - N/A Thunderstorm Partly Cloudy
4:48 PM 84.2 °F 87.3 °F 68.0 °F 58% 29.96 in 10.0 mi Variable 4.6 mph - N/A   Clear
4:53 PM 84.0 °F 86.5 °F 66.9 °F 56% 29.94 in 10.0 mi North 4.6 mph - N/A   Clear
5:53 PM 82.9 °F 86.5 °F 69.1 °F 63% 29.93 in 10.0 mi North 4.6 mph - N/A   Clear
6:53 PM 84.0 °F 87.0 °F 68.0 °F 58% 29.94 in 10.0 mi NNE 3.5 mph - N/A   Clear
7:53 PM 82.0 °F 84.9 °F 68.0 °F 62% 29.95 in 10.0 mi Calm Calm - N/A   Clear
8:53 PM 79.0 °F - 69.1 °F 72% 29.95 in 10.0 mi Calm Calm - N/A   Clear
9:53 PM 75.9 °F - 70.0 °F 82% 29.96 in 10.0 mi Calm Calm - N/A   Clear
10:53 PM 75.9 °F - 69.1 °F 79% 29.98 in 10.0 mi WSW 3.5 mph - N/A   Clear
11:53 PM 73.0 °F - 70.0 °F 90% 29.99 in 10.0 mi Calm Calm - N/A   Clear